International Virtual Aviation Organisation

Russian Federation and Kazakhstan MCD

 

Карточка аэропорта UNNT

Внимание!
Информация на этой странице в стадии наполнения.
Если вы не увидели какой-то информации, или заметили неточность - пожалуйста сообщите нам!
Спасибо!
Команда RU-STAFF
Название аэропортаТолмачево
Название аэропорта (англ.)Tolmachevo
Превышение367 ft. (111.9 m.)
Координаты55°0.77999999999989', 82°38.178'
Высота перехода1300m
Эшелон переходаFL060
Коды ответчика5201-5277
Зона ОрВДНовосибирск РПИ (UNNT)
Данные METARUNNT 260530Z 17004MPS CAVOK 04/M07 Q1031 R25/190065 R34/110070 NOSIG RMK QFE763/1018
Проноз погоды (TAF)UNNT 260500Z 2606/2706 15003G08MPS CAVOK TEMPO 2612/2614 3100 FU SCT011 TEMPO 2614/2703 0300 FU FZFG SCT001 BKN011 FM270300 16005G10MPS 9999 BKN020CB TEMPO 2703/2706 21003G08MPS -SHSNRA BKN011CB
NOTAMshow/hide NOTAM
AWOS   TABLE

Информация о ВПП

ВПП Длина ВПП (м.) Покрытие Курс ВПП Частота ILS
073597Асфальтобетон72110.1
253597Асфальтобетон252108.5
163602Цементобетон161109.7
343602Цементобетон341111.1

Диспетчерские позиции

Позывной Наименование органа УВД Частота
UNNT_GNDНовосибирск Руление121.7
UNNT_TWRНовосибирск Вышка118.5
UNNT_R_APPНовосибирск Круг122.0
UNNT_APPНовосибирск Подход127.5



Спутниковое изображение